Simultaneous Nadir Overpasses (SNOs) Predictions

Prediction of SNOs between AQUA and METOP-A Satellite Orbit:

Table of predicted SNOs for the next 14.0 days since TLE Epoch: 1/18/2013
Index Date (AQUA) Time (AQUA) Lat,Lon (AQUA) SZA (AQUA ) Date (METOP-A) Time (METOP-A) Lat,Lon (METOP-A) SZA (METOP-A ) Distance(km) Time Diff (sec)
1 01/20/2013 23:08:23 -73.84, 7.04 86.16 01/20/2013 23:07:12 -73.84, 7.09 86.15 1.72 71
2 01/20/2013 23:57:51 73.87, 174.61 93.87 01/20/2013 23:57:51 73.89, 174.54 93.89 3.29 0
3 01/21/2013 00:47:18 -73.94, -17.91 86.07 01/21/2013 00:48:31 -73.97, -17.95 86.05 3.18 73
4 01/23/2013 18:42:36 -73.85, 73.47 86.80 01/23/2013 18:41:33 -73.83, 73.47 86.80 1.78 63
5 01/23/2013 19:32:05 73.93,-119.09 93.29 01/23/2013 19:32:11 73.92,-118.98 93.28 3.47 6
6 01/23/2013 20:21:36 -74.21, 47.93 86.42 01/23/2013 20:22:47 -74.21, 49.04 86.48 33.57 71
7 01/26/2013 14:16:49 -73.85, 139.91 87.48 01/26/2013 14:15:53 -73.87, 139.95 87.46 2.08 56
8 01/26/2013 15:06:17 73.89, -52.53 92.56 01/26/2013 15:06:32 73.90, -52.63 92.57 3.17 15
9 01/26/2013 15:55:55 -74.52, 113.64 86.77 01/26/2013 15:57:02 -74.48, 116.15 86.92 74.80 67
10 01/29/2013 09:51:01 -73.85,-153.63 88.22 01/29/2013 09:50:13 -73.85,-153.69 88.21 1.84 48
11 01/29/2013 10:40:30 73.94, 13.80 91.88 01/29/2013 10:40:51 73.92, 13.83 91.86 2.31 21
12 02/01/2013 05:25:15 -73.89, -87.28 88.95 02/01/2013 05:24:33 -73.87, -87.23 88.97 3.13 42
13 02/01/2013 06:14:43 73.94, 80.26 91.09 02/01/2013 06:15:11 73.94, 80.28 91.09 0.91 28




NCC Satellite Simultaneous Nadir Overpasses (SNOs) Prediction Service
